Temp
10 10 11 11 11 12 12 12 12 12 12 12 12 13 13 13 13 13 13 14 14 14 14 14 14 14 14 14 14 14 14 14 14 14 14 14 15 14 14 14 14 14 14 14 14 15 15 15 15 16 16 16 16 15 15 15 15 15 15 15 14 15 15 16 16 16 17 17 17
10 10 10 11 11 11 11 12 12 12 12 12 12 12 13 13 13 13 13 13 14 14 14 14 14 14 14 14 14 14 14 14 14 14 14 14 15 15 14 14 14 14 14 14 15 15 15 15 15 15 15 16 16 15 15 15 15 15 15 15 15 15 15 16 16 16 16 16 16
10 10 10 10 11 11 11 12 12 12 12 12 12 12 12 13 13 13 13 13 14 14 14 14 14 14 14 14 14 14 14 14 14 14 14 14 15 15 15 15 14 14 14 14 14 15 15 15 15 15 15 16 15 15 15 15 15 15 15 15 15 15 15 15 15 16 16 16 16
10 10 10 10 11 11 11 11 12 12 12 12 12 12 12 13 13 13 13 13 13 14 14 14 14 14 14 14 14 14 14 14 14 14 15 15 15 15 15 15 15 15 15 14 14 14 15 15 15 15 15 15 15 15 15 15 15 15 15 15 15 15 15 15 15 15 15 15 15
10 10 10 10 11 11 11 11 11 12 12 12 12 12 12 12 12 13 13 13 13 13 13 13 13 13 13 14 14 14 14 14 14 14 14 15 15 15 15 15 15 15 15 15 15 15 15 15 15 15 15 15 15 15 15 15 15 15 15 15 15 15 15 15 15 15 15 15 14
10 10 10 10 10 11 11 11 11 11 12 12 12 12 12 13 13 13 13 13 13 13 13 13 13 13 13 13 13 14 14 14 14 14 14 14 15 15 15 15 15 15 15 15 15 15 15 15 15 14 15 15 15 15 15 15 15 15 15 15 15 15 15 15 15 14 14 14 14
10 10 10 10 10 10 11 11 11 11 11 11 12 12 12 12 12 12 12 13 13 13 13 13 13 13 13 13 13 13 14 14 14 14 14 14 14 15 15 15 15 15 15 15 15 15 15 15 14 14 14 14 15 15 15 15 15 15 15 15 15 15 15 15 15 14 14 14 14
10 10 10 10 10 10 10 11 11 11 11 11 11 12 12 12 12 12 12 12 12 12 12 12 12 12 12 12 12 13 13 13 13 14 14 14 14 14 14 14 14 15 15 15 15 15 15 14 14 14 14 14 14 15 15 15 15 15 15 15 15 15 15 15 15 15 14 14 14
10 10 10 10 10 10 10 10 11 11 11 11 11 11 11 12 12 12 12 12 12 12 12 12 12 12 12 12 12 12 12 13 13 13 13 14 14 14 14 14 14 14 14 14 14 14 14 14 14 14 14 14 14 14 15 15 15 15 15 15 15 15 14 14 15 14 14 14 14
11 11 11 10 10 10 10 10 10 11 11 11 11 11 11 11 11 11 11 11 11 11 11 11 11 11 11 11 11 12 12 12 12 12 12 13 13 13 14 14 14 14 14 14 14 14 14 14 14 14 14 14 14 14 14 15 15 15 15 15 15 15 15 14 14 14 14 14 14
11 11 11 11 11 11 10 11 11 11 11 11 11 11 11 11 11 11 11 11 11 11 11 10 11 11 11 11 11 11 12 12 12 12 12 12 12 13 13 13 14 14 14 14 14 14 14 14 14 15 15 14 14 14 14 14 15 15 15 15 15 15 15 15 14 14 14 14 14
11 11 11 11 11 11 11 11 11 11 11 11 11 11 11 11 11 11 11 11 11 11 11 11 11 11 11 11 11 11 11 11 11 12 12 12 12 12 13 13 13 14 14 14 14 14 14 14 14 14 15 15 14 14 14 14 14 15 15 15 15 15 14 14 14 14 14 14 14
11 11 11 11 11 11 11 11 11 11 11 11 11 11 11 11 11 11 11 11 11 11 11 11 11 11 11 11 11 11 11 11 11 11 12 12 12 12 12 13 13 13 14 14 14 14 14 14 14 14 14 14 14 15 14 14 15 15 15 15 15 15 15 14 14 14 14 14 14
10 10 10 10 11 11 11 11 11 11 11 11 11 11 11 11 11 11 11 11 11 11 11 11 11 11 11 11 11 11 11 11 11 11 12 12 12 12 12 13 13 13 14 14 14 14 14 14 14 14 14 14 14 14 15 15 15 15 15 15 15 15 15 14 14 14 14 14 14
7 8 8 9 9 10 10 11 11 11 11 11 11 11 11 11 11 11 11 11 11 11 11 11 11 11 11 11 11 11 11 12 12 12 12 12 12 12 13 13 13 13 14 14 14 14 14 14 14 14 14 14 14 14 14 14 15 15 15 15 15 15 15 14 14 14 14 14 14
6 6 6 7 7 8 9 10 10 11 11 11 11 11 11 11 11 11 11 11 11 11 11 11 11 11 11 11 12 12 12 12 12 12 12 12 12 12 13 13 13 13 14 14 14 14 14 14 14 14 14 14 14 14 14 14 15 15 15 15 15 15 15 15 14 14 14 14 14
6 6 6 6 6 7 7 8 8 9 10 10 11 11 11 11 11 11 11 11 11 11 11 11 11 12 12 12 12 12 12 12 12 12 12 12 12 13 13 13 13 13 14 14 14 14 14 14 14 14 14 14 14 14 14 14 14 15 15 15 15 15 15 15 15 14 14 14 14
6 6 6 6 6 6 6 6 7 7 8 8 9 10 10 11 11 11 11 11 11 11 12 12 12 12 12 12 12 12 12 12 12 12 12 12 12 13 13 13 13 13 13 14 14 14 14 14 14 14 14 14 14 14 14 14 15 15 15 15 15 15 15 15 15 14 14 14 14
5 5 6 6 6 6 6 6 6 6 6 7 7 8 9 10 10 10 11 11 11 11 12 12 12 11 11 12 12 12 12 12 12 12 12 12 12 13 13 13 13 13 13 13 14 14 14 14 14 14 14 14 14 14 14 14 15 15 15 14 15 15 15 15 15 15 14 14 14
5 5 5 5 5 5 6 6 6 6 6 6 6 7 7 8 9 9 10 10 11 11 11 11 11 12 12 12 12 12 12 12 12 12 12 13 13 13 13 13 13 13 13 13 14 14 14 14 14 14 14 14 14 14 14 14 14 14 14 14 15 15 15 14 14 14 14 14 14
5 5 5 5 5 5 5 5 6 6 6 6 6 6 7 7 7 8 8 9 10 10 11 11 11 11 12 12 12 12 12 12 12 13 13 13 13 13 13 13 13 13 14 14 14 14 14 14 14 14 14 14 14 14 14 14 14 14 14 14 14 14 14 14 14 14 14 14 14
4 5 5 5 5 5 5 5 5 6 6 6 6 6 6 6 6 7 7 8 8 9 9 9 9 10 10 11 12 12 12 12 12 13 13 13 13 13 13 13 13 13 14 14 14 14 14 14 14 14 14 14 14 14 14 14 14 14 14 14 14 14 14 14 14 14 14 14 14
4 4 4 5 5 5 5 5 5 5 5 5 5 6 6 6 6 6 6 7 7 7 7 7 7 8 8 9 9 10 11 12 12 13 13 13 13 13 13 13 13 13 13 13 13 14 14 14 14 14 14 14 14 14 14 14 14 14 14 14 14 14 14 14 14 14 14 13 13
4 4 4 4 4 5 5 5 5 5 5 5 5 5 5 5 6 6 6 6 6 6 7 7 7 7 7 7 8 8 9 10 11 12 13 13 14 14 13 13 13 13 13 13 13 14 14 14 14 14 14 14 14 14 14 14 14 14 14 14 14 14 14 14 14 14 13 13 13
3 3 4 4 4 4 4 5 5 5 5 5 5 5 5 5 5 5 5 6 6 6 6 6 6 6 7 7 7 7 7 8 8 9 10 12 13 14 14 13 13 13 13 13 13 14 14 14 14 14 14 14 14 14 14 14 14 14 14 14 14 14 13 13 13 13 13 13 13
3 3 3 4 4 4 4 4 4 5 5 5 5 5 5 5 5 5 5 5 5 5 6 6 6 6 6 6 6 6 7 7 7 7 8 9 11 13 14 14 14 13 14 14 14 14 14 14 14 14 14 14 14 14 14 14 14 14 14 14 13 13 13 13 13 13 13 13 13
2 3 3 3 3 4 4 4 4 4 4 4 5 5 5 5 5 5 5 5 5 5 5 5 5 5 5 6 6 6 6 6 6 6 6 7 7 9 11 13 13 13 13 13 13 13 14 14 14 14 14 14 14 14 14 14 14 13 13 13 13 13 13 13 13 13 13 12 12
2 3 3 3 3 3 3 4 4 4 4 4 4 4 4 5 5 5 5 5 5 5 5 5 5 5 5 5 5 5 5 6 6 6 6 6 6 6 6 7 9 9 8 8 10 12 13 13 13 13 13 13 13 13 13 13 13 13 13 13 13 13 13 13 13 13 13 13 13
2 2 3 3 3 3 3 3 3 4 4 4 4 4 4 4 4 4 5 5 5 5 5 5 5 5 5 5 5 5 5 5 5 5 5 6 6 5 5 5 5 5 6 6 8 9 11 13 13 13 13 13 13 13 13 13 13 13 13 13 13 13 13 13 13 13 13 13 13
1 2 2 3 3 3 3 3 3 3 4 4 4 4 4 4 4 4 4 4 4 4 4 5 5 5 5 5 5 5 5 5 5 5 5 5 5 5 5 5 5 5 6 6 7 8 9 11 12 13 13 13 13 13 13 13 13 13 13 13 13 13 13 13 13 13 13 13 13
1 1 2 2 2 3 3 3 3 3 3 3 4 4 4 4 4 4 4 4 4 4 4 4 4 4 4 4 4 4 4 5 5 5 5 5 5 5 5 5 5 5 5 6 6 7 8 9 10 12 13 13 13 13 13 13 13 13 13 13 13 13 13 13 13 13 13 13 13
0 1 1 2 2 2 2 3 3 3 3 3 3 4 4 4 4 4 4 4 4 4 4 4 4 4 4 4 4 4 4 4 4 4 4 5 5 5 5 5 5 5 5 5 6 6 7 7 8 9 11 13 13 13 13 13 13 13 13 13 13 13 13 13 13 13 13 13 13
-0 0 1 1 1 2 2 2 2 3 3 3 3 3 3 4 4 4 4 4 4 4 4 4 4 4 4 4 4 4 4 4 4 4 4 4 4 5 5 5 5 5 5 5 5 5 6 6 7 8 9 10 12 13 13 13 13 13 13 13 13 13 13 13 13 13 13 13 13
-1 -0 0 1 1 1 1 2 2 2 3 3 3 3 3 3 3 3 3 4 4 4 4 4 4 4 4 4 4 4 4 4 4 4 4 4 4 4 4 4 4 4 5 5 5 5 5 6 6 8 9 9 10 11 12 13 13 13 13 13 13 13 13 13 13 13 13 13 13
-1 -1 -0 0 0 1 1 1 1 2 2 3 3 3 3 3 3 3 3 3 4 4 4 4 4 4 4 4 4 4 4 4 4 4 4 4 4 4 4 4 4 4 4 5 5 5 5 5 6 6 7 8 9 9 10 12 13 13 13 13 13 13 13 13 13 13 13 13 13
-1 -1 -1 -0 -0 0 0 1 1 1 2 2 2 3 3 3 3 3 3 3 3 4 4 4 4 4 4 4 4 4 3 4 4 4 4 4 4 4 4 4 4 4 4 4 5 5 5 5 5 6 6 7 7 8 8 9 11 12 13 13 13 13 13 13 13 13 13 13 13
-1 -1 -1 -1 -0 -0 -0 0 0 1 1 2 2 2 2 3 3 3 3 3 3 4 4 4 3 3 3 3 3 3 3 3 3 3 3 4 4 4 4 4 4 4 4 4 4 5 5 5 5 5 5 6 6 7 7 7 8 10 11 12 13 13 13 13 13 13 13 12 12
-2 -1 -1 -1 -1 -0 -0 -0 0 0 1 1 1 2 2 2 2 3 3 3 3 3 4 4 3 3 3 3 3 3 3 3 3 3 3 3 3 3 4 4 4 4 4 4 4 4 4 5 5 5 5 5 5 6 6 7 7 7 8 10 11 12 13 13 13 13 13 13 13
-2 -2 -2 -1 -1 -1 -1 -1 -0 -0 0 1 1 1 1 2 2 2 2 3 3 3 3 3 3 3 3 3 3 3 3 3 3 3 3 3 3 3 3 3 4 4 4 4 4 4 4 4 4 4 4 4 4 5 5 6 6 7 7 7 8 9 11 12 12 12 12 13 13
-2 -2 -2 -2 -1 -1 -1 -1 -1 -0 -0 0 0 1 1 1 1 2 2 2 3 3 3 3 4 4 3 3 3 3 3 3 3 3 3 3 3 3 3 3 3 3 4 4 4 4 4 4 4 4 4 4 4 4 5 5 6 6 7 7 7 7 8 9 10 11 11 12 12
-2 -2 -2 -2 -2 -2 -1 -1 -1 -1 -0 0 0 0 0 1 1 1 2 2 2 3 3 3 4 4 4 3 3 3 3 3 3 3 3 3 3 3 3 3 3 3 3 4 4 4 4 4 4 4 4 4 4 4 4 4 5 5 5 6 6 7 7 7 7 8 9 10 11
Height
696 697 697 697 697 697 698 698 698 698 698 698 698 698 698 699 699 699 699 699 700 700 700 700 700 700 700 700 700 700 701 701 701 701 701 701 701 701 702 702 703 704 705 706 707 708 708 708 709 709 709 709 709 709 709 709 710 710 711 711 710 710 709 710 711 713 716 719 720
695 695 695 695 696 696 696 696 696 696 696 696 696 696 696 696 696 696 696 696 697 697 697 697 697 698 698 698 698 698 698 698 698 698 699 699 698 699 699 700 700 701 702 703 704 704 705 705 706 706 706 706 706 706 706 706 707 708 709 709 708 708 708 707 708 710 712 714 717
693 694 694 694 694 694 694 694 694 695 695 695 694 694 695 694 694 694 694 694 694 694 695 695 695 695 695 695 695 695 695 695 695 695 696 696 696 696 696 697 697 698 699 700 700 701 701 702 702 703 703 703 704 703 703 703 704 705 706 706 706 706 705 705 706 707 710 712 714
692 693 693 693 692 692 693 693 693 693 693 693 692 692 692 692 692 691 691 691 691 691 692 692 692 692 693 693 693 693 693 692 692 693 693 692 692 693 694 694 695 695 695 696 697 698 698 699 699 700 700 700 700 700 699 700 700 702 703 703 704 703 702 702 704 705 707 710 711
691 691 691 691 691 691 691 691 691 691 691 691 691 690 690 689 689 689 689 689 689 689 689 689 690 690 690 690 690 690 690 690 690 690 690 690 690 690 690 691 691 692 692 693 694 694 695 696 696 696 696 697 698 697 696 696 697 699 700 701 701 700 699 700 701 703 705 707 708
690 690 690 690 690 690 690 690 690 690 690 690 689 689 688 687 687 686 686 686 686 686 686 687 687 688 688 688 688 688 688 688 688 688 687 687 688 688 688 687 688 689 689 690 690 691 692 693 693 693 693 693 694 693 693 694 695 696 697 698 697 696 696 697 698 700 701 704 705
690 689 689 689 689 689 689 688 688 689 689 688 688 687 686 685 685 684 683 683 683 683 684 684 685 685 685 685 685 685 685 685 685 685 685 685 685 685 685 685 685 685 686 687 687 688 689 689 689 689 690 690 690 689 690 691 692 693 694 695 694 693 693 693 694 696 699 700 702
689 688 688 688 688 688 688 687 687 687 687 687 685 685 684 684 683 682 682 682 681 681 681 681 681 682 682 682 681 681 682 682 682 682 682 682 682 682 682 683 683 683 683 684 685 685 685 685 685 685 686 687 686 686 686 687 688 689 690 691 691 690 690 690 691 694 696 698 700
687 687 686 686 686 686 686 686 686 686 685 685 684 683 682 682 681 681 681 680 680 680 679 679 679 679 679 679 678 678 679 679 680 680 680 680 680 680 680 680 680 680 680 681 682 682 682 682 682 682 682 683 682 682 682 684 685 685 686 687 688 687 686 686 688 690 692 695 697
685 685 685 685 684 684 684 684 684 683 683 682 681 680 680 680 679 679 678 678 678 677 677 676 676 677 676 676 675 675 675 676 676 677 677 677 677 677 677 677 677 677 677 678 678 679 679 679 679 679 679 679 679 679 679 680 681 682 683 684 684 684 684 683 685 687 689 691 693
684 683 683 682 682 681 681 681 681 680 680 679 678 678 677 677 676 676 676 675 675 675 674 674 674 674 673 673 672 672 672 672 673 673 674 674 674 674 674 674 674 674 674 674 675 675 675 675 675 675 675 675 676 676 676 676 677 678 679 680 681 681 681 681 682 684 685 687 689
683 682 681 680 680 679 679 678 678 677 677 676 675 674 674 673 673 673 673 673 672 671 670 670 670 670 670 670 669 669 669 669 669 670 670 670 670 670 671 670 670 670 670 670 671 671 670 670 671 671 672 672 672 672 673 673 674 675 676 677 678 678 678 678 679 680 682 684 685
682 681 680 679 679 678 677 676 675 675 674 673 672 671 670 670 669 669 670 670 669 668 667 667 666 666 666 666 666 666 666 666 666 666 666 666 666 667 667 667 667 666 666 667 667 667 667 667 667 667 668 668 668 669 670 671 671 672 672 673 675 675 675 675 676 677 679 680 682
683 681 680 679 678 676 675 675 673 672 671 670 669 668 667 666 666 666 666 666 665 665 664 664 663 663 662 662 663 663 663 663 663 663 663 662 662 662 662 662 662 662 662 662 663 663 663 663 663 663 663 664 664 665 666 668 668 668 668 670 670 671 671 672 673 675 676 677 678
684 682 680 679 677 676 675 673 671 670 669 667 666 665 665 664 663 663 663 663 662 661 660 660 660 659 659 659 659 659 659 659 659 659 659 658 658 658 658 658 658 658 658 658 658 659 659 659 659 659 660 660 661 662 663 663 664 664 664 665 666 667 668 669 670 672 673 674 675
685 683 681 680 678 676 674 673 670 669 667 665 664 663 662 661 660 660 660 659 658 658 657 657 656 656 656 656 656 656 656 655 655 655 655 654 654 653 653 653 653 654 654 654 654 654 655 655 655 655 656 657 658 659 659 659 659 660 660 661 662 664 665 665 667 669 670 670 672
687 685 683 681 679 677 675 673 671 668 666 664 662 660 659 658 657 657 657 656 655 655 655 654 653 653 653 652 652 652 652 652 651 651 650 650 649 649 649 648 649 650 650 650 650 650 651 651 651 652 653 653 654 655 655 655 655 655 656 657 659 660 661 662 664 665 667 668 669
689 687 685 683 681 679 677 675 672 669 666 663 660 658 657 656 655 655 653 653 652 652 651 650 650 650 650 649 648 648 648 647 647 647 646 646 645 645 645 645 645 646 646 647 647 647 647 648 648 649 649 650 650 651 652 652 651 651 651 653 655 657 658 660 661 663 664 665 666
690 689 687 685 683 681 678 676 673 670 667 664 660 658 655 654 653 652 651 650 649 649 648 648 647 647 646 645 645 644 644 643 643 642 642 642 642 641 641 641 641 642 642 643 643 643 644 644 645 645 645 646 646 647 648 648 648 647 648 649 651 654 655 656 658 660 661 662 664
692 690 689 687 685 682 680 677 675 672 669 665 662 658 655 653 651 650 649 648 647 646 646 645 644 644 643 642 642 641 640 640 639 639 638 638 638 638 638 637 638 638 639 639 639 640 640 640 641 641 641 642 642 643 644 644 645 645 645 645 647 650 651 653 654 656 657 659 660
694 692 690 688 686 684 681 679 676 674 670 667 663 659 655 653 650 649 648 647 646 645 645 644 643 643 641 640 639 638 637 636 636 635 635 635 634 634 634 634 634 634 635 635 635 635 636 636 637 637 638 638 638 639 640 640 641 641 641 642 643 645 647 649 650 652 653 655 657
695 694 692 690 687 685 683 680 677 675 671 667 663 659 656 653 651 650 649 648 646 645 644 644 643 642 641 639 637 635 634 633 633 632 632 631 630 630 630 630 630 631 631 631 631 631 632 632 633 634 634 635 635 635 636 637 637 637 638 639 640 641 642 644 646 648 650 651 653
697 695 692 690 688 685 683 680 678 675 672 668 664 660 657 655 653 651 649 648 646 645 643 643 642 641 640 639 636 634 632 631 630 629 628 627 626 626 626 627 627 627 627 627 627 628 628 629 629 630 630 630 631 631 632 632 633 634 635 635 636 637 639 640 642 644 645 648 650
698 695 693 690 688 685 683 680 678 675 672 669 666 663 660 657 655 652 650 647 646 645 644 644 643 641 639 637 634 632 630 629 628 627 626 624 623 623 623 624 624 624 624 624 623 624 624 624 625 625 625 626 626 627 628 628 629 630 631 632 633 634 635 636 638 640 642 644 646
700 697 694 691 688 685 682 680 677 674 671 669 667 664 661 659 656 653 650 648 647 646 645 644 642 640 639 636 634 631 629 628 627 626 624 622 621 620 619 620 620 620 620 620 619 619 619 619 620 621 621 622 622 623 623 624 625 626 627 628 629 630 632 633 635 636 638 640 642
702 700 696 694 690 687 684 681 678 675 673 670 667 665 662 660 657 654 651 650 648 647 645 643 642 641 639 637 635 632 631 630 628 627 625 622 620 618 617 617 618 618 618 617 616 615 614 615 615 616 617 618 619 619 620 620 620 621 623 624 625 627 629 630 631 633 635 636 639
705 702 699 696 693 690 687 685 681 678 675 672 669 666 663 660 657 654 652 650 649 647 645 643 642 641 640 638 636 634 633 632 630 629 627 625 622 620 619 618 619 620 620 619 616 613 611 611 612 612 614 615 615 616 616 617 617 618 619 620 621 623 625 626 628 630 632 634 636
707 704 701 699 696 693 690 687 684 681 678 675 672 668 665 661 658 655 652 650 648 645 644 643 643 642 640 638 637 636 635 634 632 631 629 627 625 623 622 622 622 623 621 618 615 613 612 610 610 610 610 611 612 613 613 614 614 615 616 617 619 620 621 623 625 627 630 632 635
709 706 704 701 698 695 692 690 686 684 681 678 674 671 668 664 661 657 655 651 649 648 647 647 645 644 642 640 639 638 637 635 634 632 630 628 627 626 625 624 622 620 617 615 612 611 611 611 610 609 609 609 610 610 611 611 612 613 614 615 617 618 620 621 624 626 629 631 634
710 708 705 703 700 698 695 692 689 686 683 680 677 674 670 667 664 662 659 657 656 655 654 653 651 649 647 645 643 640 639 637 636 634 632 630 629 628 627 625 623 621 619 617 614 611 610 610 611 610 609 608 609 609 610 610 611 612 613 615 616 617 619 621 623 625 627 630 631
712 710 707 705 702 700 697 695 691 689 685 682 679 676 673 670 668 666 665 663 662 660 659 657 655 653 651 649 646 644 642 640 637 635 634 632 631 630 628 626 624 621 619 617 615 614 612 610 611 611 611 610 609 609 610 610 611 612 613 614 615 616 617 619 621 622 625 626 629
714 711 709 706 704 701 699 696 694 691 688 685 682 679 676 674 672 670 668 666 665 663 660 659 657 655 653 651 649 647 645 643 641 639 637 635 634 632 630 627 624 622 621 619 617 616 614 612 610 610 610 611 610 609 609 610 610 611 611 612 613 614 615 616 618 620 621 624 626
715 713 710 708 705 703 700 698 695 693 690 687 684 681 679 677 675 672 670 669 667 665 663 661 659 657 655 654 652 650 648 647 645 643 640 638 636 634 631 628 626 624 623 621 619 617 615 613 611 610 609 610 611 611 610 609 609 610 610 611 612 612 613 614 615 617 619 621 623
716 714 711 709 707 704 702 699 697 694 692 689 686 684 681 679 677 675 672 671 669 667 665 664 662 660 658 656 654 652 650 649 647 645 643 640 638 635 632 630 628 627 625 623 620 619 616 615 612 611 610 610 610 611 611 610 609 608 609 610 610 611 612 612 614 615 617 619 621
718 715 713 710 708 705 703 700 698 696 693 691 688 686 684 681 679 677 675 673 671 669 667 665 664 661 660 657 655 654 652 650 649 647 645 643 640 637 635 632 631 629 627 625 623 621 619 616 614 612 611 611 610 610 611 610 609 608 607 608 609 610 610 611 612 614 615 617 619
720 717 714 712 709 707 704 702 700 697 695 692 690 688 686 684 681 680 677 675 673 671 669 667 665 662 660 659 657 655 653 652 650 648 646 644 642 640 637 635 633 631 630 628 626 624 622 619 616 615 613 612 612 611 611 610 610 609 608 607 607 608 609 610 611 613 614 616 618
721 719 716 713 711 708 706 703 701 698 696 694 692 690 688 686 684 681 679 677 675 672 670 669 666 664 662 661 659 657 655 654 651 649 647 645 643 641 640 638 636 634 632 631 629 627 625 622 620 617 616 615 614 613 612 611 611 610 610 608 607 607 608 609 610 612 614 615 617
723 720 718 715 712 710 707 705 702 700 698 696 694 692 690 688 685 683 681 679 677 675 673 670 669 667 665 663 661 659 657 655 653 651 649 647 645 643 641 640 638 636 635 633 631 629 627 625 623 621 619 618 616 615 614 613 612 611 611 610 609 609 609 609 610 612 613 615 616
724 722 720 717 714 712 709 707 704 702 700 697 695 693 691 689 687 685 683 681 679 677 675 673 671 669 667 665 663 661 659 657 655 653 651 649 647 645 644 642 640 638 636 634 633 631 629 627 625 624 622 621 620 618 617 616 615 613 612 611 610 610 610 610 611 612 613 614 615
725 723 721 718 716 713 710 708 706 704 701 699 697 695 693 691 689 687 685 683 681 679 677 675 673 671 669 667 665 663 661 659 657 655 654 652 650 648 646 644 642 640 638 636 634 633 631 630 628 626 625 623 622 621 620 618 617 615 614 613 612 611 610 610 610 611 612 613 614
726 724 721 719 717 714 712 709 707 705 703 700 698 696 694 692 690 689 686 685 683 680 679 676 675 673 671 669 666 665 662 660 659 657 656 654 652 650 648 646 644 642 640 638 637 635 634 632 630 629 627 626 624 623 622 620 619 618 616 615 614 613 612 611 611 611 611 613 614
Wind_Speed
22 21 20 19 19 19 19 19 19 20 20 20 21 22 22 22 23 23 23 23 24 24 25 26 26 26 27 28 29 29 30 30 31 32 32 33 33 33 34 34 34 35 36 36 36 36 36 35 35 35 35 35 35 34 33 34 35 36 37 36 35 36 39 41 40 40 40 38 35
22 22 21 20 20 19 19 19 19 19 20 20 20 21 22 22 22 23 23 24 24 25 25 26 26 27 28 28 29 29 30 31 32 32 33 33 34 34 34 34 34 35 35 36 36 36 36 36 36 36 36 36 35 34 33 34 35 37 38 38 37 35 36 38 39 40 41 39 37
22 22 21 21 20 20 20 20 20 20 20 21 21 21 22 22 23 23 24 25 25 25 26 26 27 28 28 29 29 29 30 31 32 32 33 34 34 34 34 34 34 34 34 34 35 35 35 36 35 36 37 38 37 35 34 35 35 35 37 40 38 36 35 35 37 38 39 38 37
21 21 21 21 22 22 22 21 21 21 21 21 22 22 23 23 24 24 24 25 25 26 26 27 27 28 29 29 29 29 30 30 31 32 33 34 34 34 34 34 34 34 34 34 34 35 35 36 34 34 36 39 39 36 33 33 34 36 37 38 37 36 35 34 35 36 38 40 38
20 20 21 21 23 23 23 23 23 22 22 22 22 22 23 24 25 25 25 25 26 27 27 28 28 28 29 30 30 30 30 30 31 31 32 33 33 34 34 34 34 34 34 34 35 35 35 36 34 34 35 37 36 34 33 33 35 36 37 36 35 34 35 36 35 36 37 38 37
19 20 20 21 22 23 23 23 24 24 23 23 23 23 24 24 25 25 26 27 27 27 28 28 29 29 30 31 31 32 32 31 31 32 32 32 32 33 33 33 34 33 33 34 35 36 36 36 34 33 33 34 34 34 34 34 35 36 37 36 35 35 36 36 36 36 36 37 36
18 19 20 21 21 22 23 23 24 24 24 24 25 25 25 25 25 26 27 27 27 27 28 28 30 30 31 32 32 33 33 33 32 32 32 32 33 33 33 33 33 33 33 34 35 35 35 35 35 34 35 35 35 36 36 36 37 38 37 34 35 35 35 36 35 35 36 37 37
17 18 19 20 21 22 23 23 23 24 24 25 26 27 28 28 28 29 29 28 28 28 27 28 29 31 32 32 33 33 33 33 34 34 33 33 33 33 33 33 34 34 35 35 35 35 34 34 35 37 38 38 37 35 35 39 39 39 39 37 36 34 33 36 35 35 35 37 38
17 18 19 20 21 22 23 24 25 25 25 26 27 27 29 30 31 31 31 31 31 29 28 29 31 33 34 35 35 34 34 34 34 35 35 34 34 34 34 34 34 35 35 36 36 36 35 34 34 35 37 38 36 35 36 38 40 40 40 39 37 36 35 35 35 36 36 37 39
18 19 20 20 21 23 24 25 26 27 28 28 28 29 30 32 33 33 32 32 32 31 31 32 33 34 35 35 35 35 35 34 34 35 35 35 35 35 35 35 35 35 35 35 36 36 36 35 36 36 36 37 37 37 36 37 39 41 41 38 38 36 35 35 37 37 37 38 39
19 20 20 21 22 23 24 25 26 28 29 29 30 31 32 32 33 34 33 33 32 33 34 34 35 35 35 34 34 34 35 34 34 35 35 35 36 36 37 36 36 36 36 36 36 36 36 36 38 39 39 37 37 37 37 36 38 41 42 40 39 35 33 35 37 37 38 39 40
21 21 22 23 23 24 25 26 26 27 28 30 31 32 33 33 34 34 34 34 34 34 35 35 36 36 35 33 33 33 33 34 34 34 35 35 36 36 37 37 38 37 37 37 36 35 36 37 39 41 41 39 37 36 36 37 38 40 42 42 40 36 35 37 37 37 38 39 40
21 22 23 24 25 25 25 26 26 27 28 30 31 32 33 33 34 34 35 35 36 35 34 34 34 35 34 34 32 32 33 33 34 35 36 37 36 36 37 38 38 38 38 38 37 37 37 38 39 40 40 39 37 37 38 38 39 41 43 43 42 39 37 36 38 38 38 39 39
17 18 20 22 24 26 26 27 27 28 28 29 31 32 33 34 35 35 36 36 36 35 34 34 33 33 34 34 33 33 34 34 35 36 37 38 38 38 38 38 39 38 37 37 38 40 40 39 38 37 37 38 37 39 41 42 42 43 44 44 43 40 38 38 39 40 39 39 39
23 21 20 19 19 21 24 26 28 29 30 30 31 31 32 33 34 35 35 35 35 35 34 33 32 33 34 35 35 35 36 36 37 38 38 38 39 39 40 39 38 37 37 37 39 40 40 39 38 37 36 36 38 40 42 43 44 44 45 45 45 43 41 39 39 39 39 39 39
29 28 27 25 23 21 20 20 22 25 27 30 31 31 31 32 32 32 32 32 33 32 32 32 33 33 34 35 36 36 37 38 39 39 38 39 39 40 40 39 37 37 37 38 38 38 38 38 37 36 36 36 38 40 41 43 43 42 42 45 45 44 42 40 40 39 38 39 38
30 30 29 28 27 25 23 22 20 20 21 23 26 28 30 31 31 32 31 31 30 30 30 31 32 33 33 34 36 37 38 39 40 39 38 38 39 39 39 38 37 36 37 37 36 36 36 36 36 36 37 37 38 40 42 42 43 41 40 44 45 45 43 41 41 40 38 39 40
31 30 30 29 28 27 25 24 22 21 20 18 17 18 21 25 30 33 34 32 30 30 31 30 32 32 32 33 34 36 37 39 39 39 37 36 37 38 38 37 36 36 36 36 36 36 36 36 36 37 37 38 39 41 42 43 42 42 43 43 43 44 44 43 43 42 40 39 41
30 30 30 29 29 28 26 25 23 22 20 19 17 15 12 12 15 19 22 25 27 30 32 32 33 32 32 32 33 34 35 36 37 37 36 35 36 36 37 37 37 37 36 37 37 37 37 37 37 37 37 37 38 41 43 45 42 42 43 43 44 45 45 44 44 43 42 41 42
30 30 30 29 30 29 27 26 24 22 21 19 19 18 17 15 12 11 11 14 17 22 26 30 31 32 31 32 33 33 33 32 33 33 34 35 36 36 36 37 37 37 37 37 37 37 37 37 37 37 37 37 39 41 44 45 45 44 42 43 46 46 46 45 44 44 44 44 44
31 30 30 30 30 29 28 26 25 23 22 21 21 21 21 22 20 18 15 13 12 13 14 19 23 26 29 32 34 35 34 33 32 32 34 35 36 37 37 37 37 37 37 37 38 38 38 37 37 37 37 38 39 42 43 44 43 42 41 42 44 46 47 46 45 45 45 44 44
31 30 30 30 30 29 29 27 26 25 25 25 24 24 25 25 25 23 22 20 19 18 17 14 15 16 18 22 26 30 33 34 34 34 35 35 35 36 37 37 37 37 37 37 37 38 38 39 39 39 39 39 40 42 43 43 41 40 41 42 43 45 46 47 46 45 44 44 44
33 32 31 30 30 30 29 28 27 27 27 28 29 28 28 27 27 26 25 25 26 26 26 25 25 24 23 21 18 16 17 21 26 32 36 36 36 36 36 36 36 37 37 38 38 38 39 39 40 41 41 41 42 43 43 43 42 41 41 41 42 43 45 46 47 46 44 44 43
34 34 33 33 33 32 31 31 30 29 30 30 30 29 28 29 29 28 28 28 29 29 28 27 26 26 28 30 30 29 25 20 16 18 25 33 37 38 37 35 35 36 37 39 40 40 40 40 40 41 42 42 43 44 44 45 44 43 42 41 41 41 42 44 46 46 44 43 42
34 34 34 34 35 35 34 34 33 33 32 32 31 30 30 30 30 30 30 31 31 30 29 28 28 28 28 29 32 33 34 32 30 26 22 21 27 34 36 36 35 35 37 39 41 42 43 42 41 40 40 41 42 43 44 45 46 45 43 42 41 40 39 41 43 44 44 43 42
33 33 33 34 34 35 35 35 34 34 34 34 33 33 32 31 31 31 32 31 30 30 31 32 32 30 29 29 31 33 34 33 33 33 32 28 21 17 24 31 32 31 31 33 37 41 43 44 43 41 39 38 39 40 41 41 44 44 43 42 40 38 37 37 38 40 41 40 40
32 32 32 33 34 33 33 33 33 33 34 34 34 34 34 34 34 35 34 34 33 32 33 34 33 31 30 30 31 32 31 31 31 32 33 34 33 28 19 11 13 14 14 15 22 31 38 41 42 42 40 38 36 36 36 36 37 38 38 38 37 36 35 34 35 36 37 37 37
31 31 31 32 32 32 32 32 32 32 32 32 33 34 34 36 37 37 37 37 38 38 37 36 35 34 33 33 32 32 31 30 30 30 31 33 34 34 32 27 21 20 23 25 17 13 25 33 36 37 36 35 33 31 31 31 31 32 33 33 33 33 33 32 32 32 34 35 36
31 31 30 30 30 31 31 31 31 31 31 31 32 32 33 34 36 37 38 39 39 39 37 35 35 35 36 36 35 34 33 31 30 30 31 32 32 31 30 29 29 32 37 39 32 18 10 22 28 31 30 30 28 26 26 26 27 28 28 28 29 30 30 30 30 32 34 36 38
31 31 30 29 29 30 30 30 30 30 30 30 31 31 32 32 34 34 35 35 35 34 34 33 33 34 34 35 35 35 34 33 33 32 32 31 31 30 30 29 30 33 37 39 36 29 17 9 19 26 28 27 25 23 23 23 25 26 26 27 28 30 31 31 33 34 35 35 36
31 31 30 29 29 29 29 29 29 29 30 30 30 30 30 30 31 31 31 30 29 30 31 31 31 31 31 33 33 33 34 34 34 33 32 31 30 30 30 30 32 35 38 39 39 36 30 19 9 16 25 28 27 25 23 23 25 26 27 28 30 32 34 34 34 35 35 34 34
31 31 30 29 29 29 29 29 29 29 29 29 30 29 29 29 29 28 28 28 28 28 29 30 29 29 30 31 31 32 32 33 34 33 33 31 30 30 31 32 33 36 38 39 39 38 36 30 22 12 12 23 27 28 27 26 26 27 27 28 30 33 34 33 33 34 35 35 34
31 31 30 29 29 29 29 29 28 28 28 29 29 29 28 28 28 28 28 28 27 27 27 27 27 27 28 28 28 29 29 30 31 32 32 32 31 31 32 32 33 35 37 39 39 38 38 36 31 23 14 9 17 24 27 27 28 28 28 29 30 32 33 34 34 34 35 36 36
31 31 30 29 29 29 29 29 28 28 28 28 28 28 28 28 28 28 27 26 26 26 26 26 26 26 26 27 27 27 28 29 29 30 31 31 32 32 33 33 34 36 38 39 39 39 39 38 36 31 23 15 9 10 14 21 26 29 29 29 30 31 32 33 33 34 35 36 36
31 31 31 30 29 29 29 29 29 28 28 28 28 28 28 28 27 27 27 26 25 25 25 26 26 26 27 27 28 28 28 28 28 29 29 30 31 32 33 33 35 36 38 39 39 39 39 39 37 35 30 25 20 17 13 10 16 23 28 30 30 30 31 31 31 32 33 34 34
31 31 30 30 30 30 30 29 29 29 28 28 28 28 27 27 27 27 26 26 25 25 25 26 26 26 27 27 28 28 28 28 28 29 29 30 31 31 31 32 34 36 38 38 38 38 38 38 38 36 34 30 27 24 22 18 11 10 19 25 28 28 29 29 29 29 30 31 31
30 30 30 30 29 29 30 30 29 29 29 28 27 27 27 26 26 26 26 26 25 25 25 25 26 26 26 26 26 27 27 28 28 28 29 31 31 30 30 31 33 35 36 37 37 37 37 37 37 36 34 32 30 29 26 24 20 13 6 12 20 25 27 28 28 27 27 28 29
29 29 29 29 29 29 29 29 29 29 28 28 27 26 26 25 25 25 26 25 25 24 24 25 25 25 25 25 25 26 27 28 28 28 29 29 30 30 29 29 31 33 35 36 36 36 36 36 36 35 34 31 30 29 27 25 23 21 16 9 5 13 20 24 26 27 28 29 29
29 29 29 28 28 28 28 28 28 28 28 27 27 26 26 25 25 25 25 24 24 23 23 23 24 24 24 24 24 25 26 27 27 27 28 28 29 30 30 29 30 32 34 35 35 36 35 35 34 34 33 30 29 27 25 24 22 21 20 17 13 5 5 12 17 22 26 30 31
28 28 28 27 27 27 27 28 28 27 27 27 27 26 26 25 24 24 24 24 24 23 22 22 23 24 23 23 23 24 25 26 26 27 27 27 29 30 30 29 29 31 32 33 34 35 35 34 33 33 32 30 28 26 24 22 20 19 18 17 16 13 9 4 5 11 17 23 29
28 28 27 27 26 26 27 27 27 27 27 27 26 25 25 24 24 25 25 24 24 23 22 22 23 23 23 23 22 23 24 25 25 26 26 27 28 29 30 29 29 30 31 32 32 33 33 33 33 32 31 30 27 25 23 21 19 17 16 15 14 14 13 10 7 5 7 12 19
Wind_Direction
225 226 227 227 228 229 230 231 231 231 232 232 233 234 234 235 236 237 237 237 239 240 241 241 241 241 240 238 236 236 236 236 237 238 238 237 236 234 233 231 230 231 232 232 233 234 234 234 234 234 234 233 231 229 226 225 223 221 219 215 209 203 199 197 196 197 199 199 200
225 226 227 228 228 229 231 232 233 232 232 231 232 233 234 235 236 236 237 237 238 239 240 241 241 242 241 240 237 235 234 234 235 236 237 237 236 235 233 231 230 230 231 232 233 233 233 232 232 232 232 233 231 228 225 224 223 222 221 218 213 208 203 200 197 197 198 198 200
225 226 227 228 229 230 232 234 235 234 232 232 232 233 234 235 235 236 237 237 238 239 240 241 242 242 242 242 240 237 235 234 235 235 236 237 236 235 233 232 231 231 230 231 232 232 233 232 231 231 231 232 231 228 225 223 222 221 221 219 215 210 206 203 200 199 198 199 200
227 227 228 229 230 231 232 235 236 236 235 233 233 233 234 234 235 237 238 239 239 239 240 241 242 242 242 242 241 240 238 236 236 236 236 237 236 235 234 233 233 232 231 230 230 231 232 232 231 230 230 231 231 229 225 222 220 221 222 221 217 212 208 205 203 202 202 203 201
229 229 229 230 231 232 233 235 237 238 238 237 237 235 235 234 235 236 237 238 239 239 241 242 242 242 241 241 241 241 240 239 238 237 238 238 238 237 235 234 234 234 233 232 231 231 230 231 231 231 231 231 231 229 225 222 220 221 223 222 219 214 209 206 204 203 203 204 202
233 232 232 233 233 234 235 236 237 239 240 240 240 239 237 236 235 235 236 237 238 239 240 242 243 243 242 241 240 240 240 240 240 239 239 239 240 239 238 236 235 235 234 233 233 232 231 230 230 232 232 231 229 227 225 222 220 221 222 222 219 214 209 206 204 203 202 202 202
238 238 237 237 237 237 238 238 239 240 241 242 242 241 240 238 236 235 235 237 238 239 240 240 241 243 242 241 239 238 239 240 240 240 240 240 241 241 241 240 238 237 236 235 235 234 232 230 229 231 232 232 230 227 224 221 220 220 220 220 218 212 206 203 203 202 202 202 202
244 243 242 241 240 241 242 242 242 243 243 244 244 243 243 242 241 240 240 240 240 241 241 240 241 242 242 240 237 236 236 238 239 241 241 241 241 242 242 241 240 239 238 237 235 234 232 230 229 230 231 232 231 227 223 221 220 219 219 218 216 212 206 203 202 202 203 203 202
247 247 247 246 245 245 245 245 245 245 246 246 246 246 245 245 245 244 244 244 244 244 244 244 244 244 242 240 237 235 234 235 237 239 241 242 242 242 241 241 240 239 238 236 235 234 232 231 230 230 231 231 229 226 223 219 218 217 217 217 216 213 207 202 201 202 203 202 202
250 250 249 249 248 247 246 247 247 247 248 248 248 248 248 248 248 247 245 245 245 246 246 246 246 245 244 242 239 234 232 233 235 237 239 240 241 242 242 241 240 238 237 236 234 233 232 232 233 233 232 232 229 226 222 218 216 216 217 217 217 214 208 202 201 201 202 202 202
255 253 251 250 249 248 247 248 248 248 248 248 249 249 249 249 249 248 247 246 246 246 246 246 245 245 245 245 240 235 231 231 233 235 237 239 240 241 242 241 240 239 237 236 234 233 232 231 233 234 234 232 230 227 224 220 217 216 216 217 218 216 211 205 202 201 201 202 202
261 259 257 255 254 252 250 249 249 248 248 248 248 248 248 247 247 247 247 247 247 247 246 245 244 244 245 245 242 237 233 231 232 234 236 238 239 240 241 240 240 238 237 236 234 233 232 231 232 233 233 231 229 228 226 223 219 217 217 217 218 217 212 206 203 202 202 202 202
270 266 263 261 259 257 255 252 250 249 249 249 248 247 246 245 245 245 246 246 248 248 246 244 243 243 243 243 242 239 236 233 234 235 237 238 238 238 239 239 238 237 236 235 234 233 233 232 231 231 230 229 227 227 227 225 221 218 217 217 217 215 212 207 205 204 203 202 201
306 294 284 277 271 266 262 259 255 252 251 250 249 248 247 246 246 246 246 246 247 248 247 245 243 241 240 240 239 238 237 237 237 237 237 237 236 237 237 237 236 235 234 234 234 234 234 233 231 230 229 229 227 226 225 224 221 218 216 216 216 215 212 209 208 206 204 202 202
360 351 340 325 308 291 278 270 263 259 257 254 252 250 249 248 248 247 246 246 247 247 247 246 244 241 240 240 239 238 238 239 239 238 237 236 236 236 236 236 235 234 234 235 235 235 234 233 232 232 232 232 231 229 225 222 219 217 216 215 215 215 213 210 208 207 205 203 202
9 6 2 356 347 334 317 300 287 277 269 263 258 254 251 251 250 249 248 249 249 249 248 246 244 242 241 241 240 240 240 240 240 240 239 238 237 236 236 235 234 234 234 236 236 235 234 234 234 233 233 233 234 232 227 221 217 214 214 214 215 214 213 210 208 207 206 205 204
9 6 3 0 356 351 345 335 326 313 299 285 274 265 259 256 254 254 254 252 250 250 250 248 245 244 244 243 242 242 241 241 241 241 241 240 239 238 237 236 235 234 234 235 236 237 236 235 235 234 233 232 232 231 228 222 217 213 211 212 213 214 213 211 210 209 207 207 207
8 6 3 1 358 355 351 347 343 338 333 325 313 295 280 271 267 265 262 257 252 251 251 251 250 249 248 246 244 241 240 240 241 241 241 240 240 238 237 236 235 234 234 234 236 236 236 236 235 233 232 231 231 230 228 224 219 213 210 210 212 213 214 213 212 211 210 209 210
6 4 2 0 358 356 353 351 349 347 347 350 354 354 340 310 294 284 275 267 259 255 253 254 253 252 250 249 247 244 241 240 240 240 241 242 241 240 237 236 235 234 234 234 235 235 235 235 234 232 231 230 230 229 228 225 221 216 211 210 213 215 215 214 213 213 213 212 212
3 3 1 359 358 356 355 353 352 351 351 355 3 14 21 22 12 349 324 306 287 272 262 256 253 251 250 250 249 247 244 242 242 242 243 244 243 241 238 236 236 235 234 234 234 234 234 234 233 232 231 230 229 229 227 225 222 217 213 211 213 215 215 214 214 213 213 213 214
2 2 1 359 358 357 356 354 355 356 357 1 7 15 23 28 29 24 13 359 343 322 298 279 270 265 260 256 252 248 246 246 246 247 246 245 243 242 241 240 239 238 237 236 235 235 235 235 234 233 232 231 230 228 226 223 220 216 212 212 212 213 213 213 213 213 213 213 213
0 360 360 0 359 358 357 356 357 360 3 7 11 16 22 27 29 29 29 29 29 26 18 4 349 329 304 284 269 259 253 249 248 248 247 246 244 243 244 244 243 242 240 238 237 236 236 236 235 234 233 231 229 226 223 219 216 214 213 212 212 212 212 212 212 212 212 211 211
358 358 359 359 359 359 359 358 0 4 8 11 13 16 20 24 27 28 30 31 33 34 32 29 24 18 11 2 348 323 294 272 260 253 249 247 246 246 246 246 245 243 241 239 238 236 235 235 234 233 232 229 227 224 220 216 214 214 214 213 212 211 211 210 210 210 209 209 208
357 358 358 359 359 359 360 1 3 7 10 13 15 16 18 21 24 27 29 30 31 30 28 25 22 20 20 21 22 21 16 4 334 296 271 257 250 248 246 244 242 241 239 238 237 235 234 233 232 232 230 227 224 220 218 215 215 214 214 212 211 210 209 208 208 207 206 206 205
357 358 359 360 360 0 2 3 5 8 10 12 14 15 17 20 22 24 27 29 30 29 26 23 21 19 18 18 21 24 25 23 16 5 342 304 267 250 241 238 238 238 237 236 235 234 232 231 229 228 227 224 220 218 217 216 215 213 212 211 209 208 206 205 204 202 201 200 200
357 358 359 0 1 2 3 4 6 7 9 10 12 14 16 18 20 23 25 27 27 27 26 25 23 21 19 17 19 22 23 22 21 18 14 4 342 295 254 240 236 235 235 233 230 229 228 226 225 223 222 220 218 216 215 214 212 211 209 207 204 202 200 198 197 195 194 194 195
357 357 358 359 1 2 3 4 4 5 7 9 11 12 14 16 19 21 23 24 24 25 25 25 23 20 19 18 19 20 20 20 20 20 20 19 16 10 356 312 262 252 256 255 238 226 220 218 217 216 215 214 212 211 209 208 206 204 201 199 196 193 191 189 189 188 189 191 193
357 357 358 360 0 1 2 3 4 4 6 8 10 12 14 17 19 20 21 22 23 23 23 22 20 19 18 18 18 18 18 18 18 19 20 21 22 21 20 16 13 10 4 355 334 262 222 211 207 206 204 203 201 199 197 195 194 192 191 189 187 186 185 185 185 187 189 193 196
357 358 359 360 360 0 1 2 2 3 5 6 9 12 15 17 19 20 21 21 22 22 21 19 19 18 18 17 16 15 16 16 17 17 18 19 19 19 18 17 16 13 11 10 6 349 270 220 207 200 195 192 190 189 187 186 184 184 184 185 185 186 186 187 189 191 194 197 198
357 358 359 359 1 1 2 2 2 3 4 6 9 11 14 16 18 19 20 21 21 20 20 19 19 19 18 17 16 15 14 14 15 16 18 18 17 15 14 13 12 11 11 12 12 10 356 282 227 212 202 195 191 189 188 186 185 185 186 187 189 190 191 192 194 195 197 197 197
356 357 358 359 1 2 2 2 3 4 5 7 9 11 13 15 16 17 18 18 18 18 19 20 19 19 18 18 18 16 14 13 14 15 16 16 15 14 13 13 13 12 11 12 13 13 12 3 312 240 219 209 202 198 196 194 192 191 190 191 192 193 193 194 194 194 195 194 194
356 356 357 359 0 1 2 3 4 5 7 8 10 11 12 13 14 14 15 16 16 17 17 18 18 17 17 17 17 17 16 15 14 14 14 14 13 13 14 14 14 12 11 10 12 13 14 13 8 340 258 225 215 209 206 203 200 197 196 195 194 193 192 191 191 192 192 193 193
355 356 357 358 359 360 1 2 4 5 7 9 10 11 11 11 12 12 13 13 14 15 15 15 16 16 16 16 16 16 15 15 14 14 13 13 13 14 15 15 14 12 10 10 10 11 12 13 13 9 352 276 234 224 218 212 207 204 200 198 195 193 191 190 190 190 191 193 194
355 356 356 357 358 359 360 1 2 4 6 8 9 10 10 10 10 10 10 10 11 12 13 14 15 15 15 16 16 15 14 14 14 14 13 13 13 14 14 14 14 12 11 10 10 10 11 12 13 12 8 358 327 280 246 224 213 207 203 200 197 194 192 190 189 189 190 190 191
355 355 356 356 357 358 359 0 1 3 5 7 8 8 9 9 9 8 8 7 8 10 12 13 13 14 15 15 16 15 14 13 13 13 13 14 14 14 13 13 12 12 12 11 10 10 10 11 12 13 12 8 2 351 331 282 230 211 203 200 197 195 192 190 189 188 188 188 188
355 355 355 356 357 358 359 360 1 2 4 5 5 6 7 7 8 7 6 6 8 9 11 12 12 13 14 14 14 14 13 12 12 12 13 14 14 13 12 11 11 11 11 11 10 10 10 10 11 12 12 10 6 0 354 344 317 241 208 199 196 194 193 192 191 190 189 189 189
354 354 355 355 356 357 358 359 0 1 2 3 3 4 4 5 5 5 5 6 7 8 9 10 11 12 12 12 12 12 12 12 12 12 12 14 14 12 11 10 10 10 10 10 10 10 9 9 10 11 11 10 7 3 358 354 348 335 279 210 197 194 194 195 197 197 197 196 196
355 355 355 355 355 356 357 359 0 0 1 1 1 1 2 3 4 4 4 5 5 6 7 9 10 10 10 10 11 11 11 12 12 12 12 12 12 11 10 9 8 8 9 9 9 9 9 9 9 9 9 8 6 3 359 355 351 347 341 327 241 200 195 197 200 203 205 206 207
354 355 355 355 355 356 357 358 359 360 360 359 359 0 1 2 2 3 3 3 4 4 6 7 8 9 9 9 10 11 12 12 13 13 12 11 11 11 10 8 7 7 7 7 8 8 8 8 8 8 8 7 5 2 358 355 351 347 345 344 341 324 213 200 200 202 205 209 213
353 354 354 355 355 356 357 357 358 359 359 359 359 360 0 0 0 1 1 2 3 3 4 5 6 7 8 9 10 10 11 12 12 12 12 11 11 11 10 8 6 5 6 6 6 7 7 7 7 6 6 5 4 1 358 354 351 348 345 342 342 341 336 310 219 203 204 208 212
353 353 354 354 355 356 357 357 357 357 359 360 360 359 359 359 359 0 1 2 2 2 2 3 3 5 7 8 9 9 9 10 11 11 11 11 11 11 10 8 6 5 5 5 5 5 6 6 5 5 5 4 2 0 358 354 352 351 349 346 340 334 329 323 309 266 221 211 210